カタログに戻る

PIESAT-2 12

運用中科学SSO
NORAD 62336·PAYLOAD·🇨🇳 China

打ち上げ Dec 16, 2024 から Taiyuan Satellite Launch Center

Loading…

次のパス (今後24時間)

TLE

最新Source: Space-Track

元期: Sep 14, 2026, 13:57 UTC

1 62336U 24241D   26257.58171738  .00005903  00000-0  31720-3 0  9998
2 62336  97.5304 204.1325 0001717  70.1157 290.0260 15.15274912 96331

AllMySatでPIESAT-2 12をリアルタイム追跡

Download on the App Store